Погода в Одатэ-Носиро

Япония     40°11′30″N   140°22′17″E
темп.,
°C
ветер,
м/с
пор.,
м/с
влажн.,
%
обл.,
%
осадки,
мм/ч
давл.,
гПа
погр.,
м
16 мая, вс
вс1600:00+13всв2271100 0.0 101335
03:00+13всв2372100 0.0 101248
06:00+16всв237493 0.0 1011108
09:00+18св0175100 0.0 101042
12:00+19зсз2576100 0.0 1009303
15:00+17з2586100 0.1 1007276
18:00+15зсз1397100 0.7 1007131
21:00+15св1299100 12.9 100480
17 мая, пн
пн1700:00+15св12100100 19.8 100068
03:00+18ююз51697100 42.8 9981300
06:00+18юз61598100 30.6 9981240
09:00+16юз51198100 32.3 998914
12:00+15юз3799100 1.4 1000735
15:00+14юз3598100 1.5 1002459
18:00+14зюз2599100 0.1 1004439
21:00+13юз2599100 0.1 1006383
18 мая, вт
вт1800:00+12зюз2697100 0.0 1008312
03:00+12юз2498100 0.0 1010175
06:00+12зюз129343 0.0 1012244
09:00+18зюз34535 0.0 1013937
12:00+20зюз5444100 0.0 10121209
15:00+18зюз4550100 0.0 1012697
18:00+15юз23777 0.0 101396
21:00+10св11930 0.0 101511
19 мая, ср
ср1900:00+9св2195100 0.0 101420
03:00+10всв1189100 0.0 101418
06:00+12в1177100 0.0 101478
09:00+19ююв015497 0.0 1014442
12:00+21зюз345398 0.0 10131235
15:00+20юз446029 0.0 10131085
18:00+16юз348322 0.0 1015340
21:00+12з11979 0.0 101712
20 мая, чт
чт2000:00+11св0098100 0.0 101710
03:00+10св1197100 0.0 101712
06:00+13всв1291100 0.0 1018111
09:00+20в235796 0.0 1017557
12:00+24всв1343100 0.0 10151141
15:00+24ююз0355100 0.0 1013679
18:00+18ссв2278100 0.0 101318
21:00+16св2380100 0.0 101361